This demonstration page uses our WeatherBlox Daily Observations layout. Learn more.

36.17497, -115.13722

Hourly Observations for July 1, 2016

Temp ( °F °C ) Dew Point ( °F °C ) Humidity (%) Winds ( mph kmh ) Pressure ( in mb ) Visibility ( mi km ) Precip ( " mm )
12:53 am 00:53 Mostly Cloudy 82 27.8 56 13.3 41 41 NNW 10 17 29.94 1014 10 16.0934 0 0
1:53 am 01:53 Mostly Cloudy 79 26.1 60 15.6 52 52 NNW 20 31 29.98 1015 10 16.0934 0 0.0254
2:53 am 02:53 Cloudy with Light Rain 73 22.8 63 17.2 71 71 NNW 21 33 30.01 1016 10 16.0934 0 0.0254
3:53 am 03:53 Mostly Cloudy with Light Rain 70 21.1 62 16.7 76 76 NNW 15 24 29.92 1013 10 16.0934 0 0
4:53 am 04:53 Clear 71 21.7 63 17.2 76 76 SE 6 9 29.9 1013 10 16.0934 0 0
5:53 am 05:53 Mostly Sunny 71 21.7 63 17.2 76 76 ESE 7 11 29.93 1013 10 16.0934 0 0
6:53 am 06:53 Sunny 73 22.8 62 16.7 69 69 NNW 5 7 29.96 1015 10 16.0934 0 0
7:53 am 07:53 Sunny 75 23.9 61 16.1 62 62 Calm 29.98 1015 10 16.0934 0 0
8:53 am 08:53 Sunny 77 25 62 16.7 60 60 N 7 11 29.98 1015 10 16.0934 0 0
9:53 am 09:53 Sunny 78 25.6 61 16.1 56 56 NNW 5 7 29.97 1015 10 16.0934 0 0
10:53 am 10:53 Sunny 82 27.8 56 13.3 41 41 Calm 29.96 1015 10 16.0934 0 0
11:53 am 11:53 Sunny 86 30 57 13.9 37 37 VRB 7 11 29.95 1014 10 16.0934 0 0
12:53 pm 12:53 Sunny 86 30 57 13.9 37 37 VRB 3 6 29.93 1014 10 16.0934 0 0
1:53 pm 13:53 Sunny 89 31.7 55 12.8 31 31 E 6 9 29.9 1013 10 16.0934 0 0
2:53 pm 14:53 Sunny 91 32.8 57 13.9 32 32 Calm 29.87 1011 10 16.0934 0 0
3:53 pm 15:53 Sunny 93 33.9 58 14.4 31 31 SSE 10 17 29.83 1010 10 16.0934 0 0
4:53 pm 16:53 Sunny 95 35 57 13.9 28 28 ESE 7 11 29.8 1009 10 16.0934 0 0
5:53 pm 17:53 Sunny 96 35.6 57 13.9 27 27 E 10 17 29.79 1009 10 16.0934 0 0
6:53 pm 18:53 Sunny 96 35.6 60 15.6 30 30 SE 14 22 29.78 1009 10 16.0934 0 0
7:53 pm 19:53 Sunny 94 34.4 60 15.6 32 32 S 10 17 29.8 1009 10 16.0934 0 0
8:53 pm 20:53 Mostly Clear 91 32.8 59 15 34 34 SE 10 17 29.82 1010 10 16.0934 0 0
9:53 pm 21:53 Mostly Cloudy 87 30.6 53 11.7 31 31 E 22 35 29.87 1012 10 16.0934 0 0
10:53 pm 22:53 Mostly Cloudy 85 29.4 53 11.7 33 33 NNE 14 22 29.94 1014 10 16.0934 0 0
11:19 pm 23:19 Cloudy 78 25.6 56 13.3 47 47 NW 35 56 29.88 1012 8 12.87472 0 0
11:53 pm 23:53 Mostly Cloudy with Light Rain 73 22.8 66 18.9 79 79 NNW 26 43 30.01 1016 10 16.0934 0 0.0254

Powered by AerisWeather